Regional Weather Roundup
Issued by NWS

Home | Current Version | Previous Version | Text Only | Print | Product List | Glossary On
Versions: 1 2 3 4 5 6 7 8 9 10 11 12 13 14 15 16 17 18 19 20 21 22 23 24 25 26 27 28 29 30 31 32 33 34 35 36 37 38 39 40 41 42 43 44 45 46 47 48 49 50
000
ASUS43 KMPX 290710
RWRMN
WEATHER ROUNDUP FOR MINNESOTA
NATIONAL WEATHER SERVICE TWIN CITIES/CHANHASSEN MN
200 AM CDT FRI MAY 29 2015


NOTE: "FAIR" INDICATES FEW OR NO CLOUDS BELOW 12,000 FEET WITH NO
SIGNIFICANT WEATHER AND/OR OBSTRUCTIONS TO VISIBILITY. N/A MEANS
CURRENT SKY AND/OR WEATHER CONDITIONS ARE NOT AVAILABLE.

MNZ060>063-068>070-290800-
   Twin Cities Metro

CITY           SKY/WX    TMP DP  RH WIND       PRES   REMARKS
TWIN CITIES    LGT RAIN  69  61  75 S12       29.91S
ST PAUL        CLOUDY    67  58  72 S7        29.91F
CRYSTAL        MOCLDY    72  59  63 S10       29.87F
BLAINE         MOCLDY    73  61  64 S14G22    29.89F
LAKEVILLE      LGT RAIN  66  61  82 SW3       29.92S
EDEN PRAIRIE   MOCLDY    69  60  73 S13       29.88F
SOUTH ST PAUL  CLOUDY    70  56  61 S5        29.91F
LAKE ELMO      CLOUDY    68  55  64 SE8       29.92F
$$
MNZ001>005-007-008-013>017-022>024-027-028-290800-
   Northwest Minnesota

CITY           SKY/WX    TMP DP  RH WIND       PRES   REMARKS
BEMIDJI        LGT RAIN  59  58  97 W3        29.86F
HALLOCK        CLOUDY    54  52  94 N29       29.92R
ROSEAU         CLOUDY    57  54  88 N17G25    29.87R
WARROAD        CLOUDY    57  55  94 NW12G21   29.87R
THIEF RVR FALL CLOUDY    63  59  88 N13       29.86S
CROOKSTON      CLOUDY    61  59  94 N20       29.87S FOG
FOSSTON        CLOUDY    59  57  94 CALM      29.87S
DETROIT LAKES  CLOUDY    61  59  94 NW9       29.88R
MOORHEAD       RAIN      61  61 100 S3        29.86F
PARK RAPIDS    LGT RAIN  61  58  90 S6        29.85F
MAHNOMEN       DRIZZLE   60  58  95 SW9       29.87R
$$
MNZ006-009>011-018-025>026-290800-
   North Central Minnesota

CITY           SKY/WX    TMP DP  RH WIND       PRES   REMARKS
BAUDETTE       CLOUDY    60  59  96 W7        29.83F
FLAG ISLAND    CLOUDY    59  57  94 NW17      29.84R
INTL FALLS     CLOUDY    59  57  93 VRB3      29.84S
WASKISH        LGT RAIN  61  59  94 CALM      29.84F
BIG FORK       HVY RAIN  61  57  88 CALM      29.87S
LONGVILLE      LGT RAIN  61  59  94 CALM      29.85F
GRAND RAPIDS   CLOUDY    64  55  72 W7        29.86F
CRANE LAKE     CLOUDY    57  55  94 CALM      29.85F FOG
ORR            CLOUDY    61  55  82 CALM      29.82F
COOK           CLOUDY    61  50  67 S7        29.85F
WALKER         LGT RAIN  58  57  96 CALM      29.84F
$$
MNZ012-019>021-037-290800-
   Northeast Minnesota

CITY           SKY/WX    TMP DP  RH WIND       PRES   REMARKS
DULUTH         CLOUDY    48  44  86 SE3       29.88F
HIBBING        CLOUDY    54  47  77 SE3       29.87F
EVELETH        CLOUDY    57  50  77 W5        29.89S
DULUTH HARBOR  CLOUDY    43  41  93 NE3       29.91F
TWO HARBORS    CLOUDY    46  43  87 CALM      29.88F
SILVER BAY     CLOUDY    45  43  93 CALM      29.89F
GRAND MARAIS     N/A     40  39  97 VRB3      29.92F
G MARAIS ARPRT CLOUDY    54  48  82 CALM      29.93S
$$
MNZ029>031-032-039>041-046>048-054>057-064-290800-
   West Central Minnesota

CITY           SKY/WX    TMP DP  RH WIND       PRES   REMARKS
FERGUS FALLS   DRIZZLE   61  61 100 S6        29.85S
WHEATON        LGT RAIN  59  57  94 SE8       29.88R
MORRIS         CLOUDY    61  61 100 E10       29.84F
ALEXANDRIA     CLOUDY    60  57  89 SE3       29.87F
ELBOW LAKE     LGT RAIN  60  59  99 SE8       29.84F
WADENA         DRIZZLE   61  59  94 CALM      29.85F
GLENWOOD       CLOUDY    61  55  82 NE3       29.88F
APPLETON       CLOUDY    63  59  88 E6        29.87F
BENSON         RAIN      63  55  77 E5        29.87F
ORTONVILLE     LGT RAIN  61  57  88 CALM      29.86F
MADISON        TSTM      63  61  94 MISG      29.89R
WILLMAR        MOCLDY    64  61  88 CALM      29.90F
$$
MNZ033>034-036-042>043-049>051-058-059-290800-
   Central Minnesota

CITY           SKY/WX    TMP DP  RH WIND       PRES   REMARKS
ST CLOUD       MOCLDY    65  59  81 SW7       29.88R
SAUK CENTRE    PTSUNNY   62  58  84 CALM      29.88F
PAYNESVILLE    CLOUDY    62  58  87 S3        29.89F
AITKIN         CLOUDY    66  55  68 S5        29.84F
PINE RIVER     LGT RAIN  61  61 100 CALM      29.88F
BRAINERD       CLOUDY    64  57  78 NW8       29.87F
STAPLES        CLOUDY    59  57  94 CALM      29.86F
LONG PRAIRIE   FAIR      61  55  82 W3        29.88F
LITTLE FALLS   CLOUDY    64  55  72 SW5       29.88S
LITCHFIELD     CLOUDY    66  63  88 SW3       29.89S
BUFFALO        MOCLDY    66  58  75 S5        29.88F
MAPLE LAKE     MOCLDY    67  61  81 S6        29.88F
$$
MNZ037-044-045-052-053-290800-
   East Central Minnesota

CITY           SKY/WX    TMP DP  RH WIND       PRES   REMARKS
PRINCETON      PTCLDY    66  61  82 S3        29.88S
MORA           MOCLDY    59  50  72 CALM      29.89F
CAMBRIDGE      MOCLDY    64  54  68 CALM      29.87S
RUSH CITY      PTCLDY    63  55  74 CALM      29.88F
MOOSE LAKE     CLOUDY    45  43  93 NE3       29.86F
HINCKLEY       FAIR      63  55  77 S3        29.88F
CLOQUET        CLOUDY    45  43  93 CALM      29.89F FOG
MCGREGOR       CLOUDY    61  54  77 CALM      29.87F
$$
MNZ071>073-080-081-089-090-097-098-290800-
   Southwest Minnesota

CITY           SKY/WX    TMP DP  RH WIND       PRES   REMARKS
MONTEVIDEO     CLOUDY    66  59  77 NE8       29.89S
GRANITE FALLS  CLOUDY    65  59  81 N3        29.89R
CANBY          CLOUDY    65  59  80 NW13      29.88R
MARSHALL       PTCLDY    64  57  77 S10       29.84F
REDWOOD FALLS  MOCLDY    65  61  87 S12       29.85F
OLIVIA         MOCLDY    63  57  82 S9        29.85F
PIPESTONE      MOCLDY    64  61  88 S6        29.87F
WINDOM         MOCLDY    66  61  82 S9        29.88F
WORTHINGTON    MOCLDY    63  57  82 S17G32    29.92R THUNDER
JACKSON        MOCLDY    66  63  88 S9        29.90F
TRACY          PTCLDY    65  62  91 S13       29.85F
SLAYTON        MOCLDY    63  62  98 CALM      29.89F
$$
MNZ065>067-074>077-082>085-091>093-290800-
   South Central Minnesota

CITY           SKY/WX    TMP DP  RH WIND       PRES   REMARKS
MANKATO        CLOUDY    68  61  77 S8        29.90F
NEW ULM        CLOUDY    64  63  94 S7        29.88F
ST JAMES       CLOUDY    68  64  88 S9        29.89F
FAIRMONT       CLOUDY    66  59  77 S10       29.90F
GLENCOE        CLOUDY    68  63  84 S3        29.87F
FARIBAULT      RAIN      66  63  88 SW5       29.93S
OWATONNA       CLOUDY    68  59  73 SE6       29.92F
WASECA         CLOUDY    64  59  82 S5        29.93F
ALBERT LEA     RAIN      68  61  77 S7        29.93S
$$
MNZ078>079-086>088-094>096-290800-
   Southeast Minnesota

CITY           SKY/WX    TMP DP  RH WIND       PRES   REMARKS
ROCHESTER      CLOUDY    65  57  75 S8        29.96F
RED WING       TSTM      66  59  77 SE9       29.93S
STANTON        CLOUDY    69  58  68 SE5       29.91F
DODGE CENTER   CLOUDY    66  59  77 S7        29.95S
WINONA         CLOUDY    68  59  73 CALM      29.96S
AUSTIN         LGT RAIN  64  59  82 S5        29.94F
PRESTON        LGT RAIN  64  57  78 S7        29.97F
$$
ABBREVIATIONS USED IN REMARKS
   TC - TEMPERATURES IN CELSIUS
  WCI - WIND CHILL INDEX
   HX - HEAT INDEX
  VSB - VISIBILITY
$$


USA.gov is the U.S. government's official web portal to all federal, state and local government web resources and services.